timestamp,surface_pressure_avg,surface_temp_avg,battery_voltage,lat,long
2022-05-13 00:09:00+00:00,264.9197,7.9,12.01,47.84626,-54.09684
2022-05-13 00:19:00+00:00,257.7481,7.96,12.01,47.84626,-54.09684
2022-05-13 00:29:00+00:00,250.5081,8.06,12.01,47.84626,-54.09684
2022-05-13 00:39:00+00:00,242.1048,8.18,12.01,47.84626,-54.09684
2022-05-13 00:49:00+00:00,238.3314,8.28,12.01,47.84626,-54.09684
2022-05-13 00:59:00+00:00,237.4232,8.3,12.01,47.84626,-54.09684
2022-05-13 01:09:00+00:00,232.0064,8.38,12.01,47.84626,-54.09684
2022-05-13 01:19:00+00:00,223.8548,8.41,12.01,47.84626,-54.09684
2022-05-13 01:29:00+00:00,220.2931,8.49,12.01,47.84626,-54.09684
2022-05-13 01:39:00+00:00,217.7764,8.4,12.01,47.84626,-54.09684
2022-05-13 01:49:00+00:00,214.4948,8.4,12.01,47.84626,-54.09684
2022-05-13 01:59:00+00:00,211.7814,8.4,12.01,47.84626,-54.09684
2022-05-13 02:09:00+00:00,211.6215,8.28,12.01,47.84626,-54.09684
2022-05-13 02:19:00+00:00,209.2765,7.9,12.01,47.84626,-54.09684
2022-05-13 02:29:00+00:00,208.0781,7.6,12.01,47.84626,-54.09684
2022-05-13 02:39:00+00:00,211.5765,7.58,12.01,47.84626,-54.09684
2022-05-13 02:49:00+00:00,211.0198,7.76,12.01,47.84626,-54.09684
2022-05-13 02:59:00+00:00,208.5131,8.0,12.01,47.84626,-54.09684
2022-05-13 03:09:00+00:00,209.3781,7.88,12.01,47.84626,-54.09684
2022-05-13 03:19:01+00:00,212.3315,7.86,11.93,47.84626,-54.09684
2022-05-13 03:29:01+00:00,209.7581,8.0,11.93,47.84626,-54.09684
2022-05-13 03:39:01+00:00,208.4214,7.84,11.93,47.84626,-54.09684
2022-05-13 03:49:01+00:00,207.6065,7.75,11.93,47.84626,-54.09684
2022-05-13 03:59:01+00:00,205.7215,8.0,11.93,47.84626,-54.09684
2022-05-13 04:09:01+00:00,205.4981,8.0,11.93,47.84626,-54.09684
2022-05-13 04:19:00+00:00,207.3331,7.8,12.01,47.84626,-54.09684
2022-05-13 04:29:00+00:00,207.4598,7.6,12.01,47.84626,-54.09684
2022-05-13 04:39:00+00:00,205.3965,7.85,12.01,47.84626,-54.09684
2022-05-13 04:49:00+00:00,205.3581,7.7,12.01,47.84626,-54.09684
2022-05-13 04:59:00+00:00,212.3481,7.5,12.01,47.84626,-54.09684
2022-05-13 05:09:00+00:00,220.7481,7.5,12.01,47.84626,-54.09684
2022-05-13 05:19:01+00:00,222.7048,7.6,11.93,47.84626,-54.09684
2022-05-13 05:29:01+00:00,227.5448,7.5,11.93,47.84626,-54.09684
2022-05-13 05:39:01+00:00,237.2664,7.4,11.93,47.84626,-54.09684
2022-05-13 05:49:01+00:00,242.588,7.4,11.93,47.84626,-54.09684
2022-05-13 05:59:01+00:00,245.2647,7.33,11.93,47.84626,-54.09684
2022-05-13 06:09:01+00:00,250.9364,7.26,11.93,47.84626,-54.09684
2022-05-13 06:19:00+00:00,257.0747,7.2,11.93,47.84626,-54.09684
2022-05-13 06:29:00+00:00,258.158,7.11,11.93,47.84626,-54.09684
2022-05-13 06:39:00+00:00,265.8398,7.1,11.93,47.84626,-54.09684
2022-05-13 06:49:00+00:00,275.2964,7.1,11.93,47.84626,-54.09684
2022-05-13 06:59:00+00:00,279.9697,7.1,11.93,47.84626,-54.09684
2022-05-13 07:09:00+00:00,282.4531,7.09,11.93,47.84626,-54.09684
2022-05-13 07:19:00+00:00,288.1514,7.09,11.93,47.84626,-54.09684
2022-05-13 07:29:00+00:00,295.2864,7.1,11.93,47.84626,-54.09684
2022-05-13 07:39:00+00:00,298.7413,7.1,11.93,47.84626,-54.09684
2022-05-13 07:49:00+00:00,304.6413,7.1,11.93,47.84626,-54.09684
2022-05-13 07:59:00+00:00,313.8264,7.1,11.93,47.84626,-54.09684
2022-05-13 08:09:00+00:00,323.8996,7.1,11.93,47.84626,-54.09684
2022-05-13 08:19:00+00:00,327.8546,7.1,11.93,47.84626,-54.09684
2022-05-13 08:29:00+00:00,328.6413,7.1,11.93,47.84626,-54.09684
2022-05-13 08:39:00+00:00,329.6963,7.1,11.93,47.84626,-54.09684
2022-05-13 08:49:00+00:00,334.51800000000014,7.1,11.93,47.84626,-54.09684
2022-05-13 08:59:00+00:00,338.7714,7.1,11.93,47.84626,-54.09684
2022-05-13 09:09:00+00:00,339.4530000000001,7.05,11.93,47.84626,-54.09684
2022-05-13 09:19:01+00:00,337.4846,7.07,11.93,47.84626,-54.09684
2022-05-13 09:29:01+00:00,339.8264,7.06,11.93,47.84626,-54.09684
2022-05-13 09:39:01+00:00,344.2512,7.07,11.93,47.84626,-54.09684
2022-05-13 09:49:01+00:00,340.7411,7.07,11.93,47.84626,-54.09684
2022-05-13 09:59:01+00:00,340.3863,7.1,11.93,47.84626,-54.09684
2022-05-13 10:09:01+00:00,342.483,7.1,11.93,47.84626,-54.09684
2022-05-13 10:19:00+00:00,336.6462,7.1,11.93,47.84626,-54.09684
2022-05-13 10:29:00+00:00,327.978,7.1,11.93,47.84626,-54.09684
2022-05-13 10:39:00+00:00,324.8079,7.1,11.93,47.84626,-54.09684
2022-05-13 10:49:00+00:00,319.8513,7.1,11.93,47.84626,-54.09684
2022-05-13 10:59:00+00:00,311.0746,7.1,11.93,47.84626,-54.09684
2022-05-13 11:09:00+00:00,307.9581,7.1,11.93,47.84626,-54.09684
2022-05-13 11:19:01+00:00,311.2112,7.1,11.93,47.84626,-54.09684
2022-05-13 11:29:01+00:00,307.96299999999997,7.1,11.93,47.84626,-54.09684
2022-05-13 11:39:01+00:00,300.46299999999997,7.1,11.93,47.84626,-54.09684
2022-05-13 11:49:01+00:00,295.0597,7.06,11.93,47.84626,-54.09684
2022-05-13 11:59:01+00:00,291.118,7.0,11.93,47.84626,-54.09684
2022-05-13 12:09:01+00:00,281.8931,6.9,11.93,47.84626,-54.09684
2022-05-13 12:19:01+00:00,274.3231,7.0,11.93,47.84626,-54.09684
2022-05-13 12:29:01+00:00,268.7315,7.0,11.93,47.84626,-54.09684
2022-05-13 12:39:01+00:00,260.7414,7.0,11.93,47.84626,-54.09684
2022-05-13 12:49:01+00:00,250.8064,7.0,11.93,47.84626,-54.09684
2022-05-13 12:59:01+00:00,244.5465,6.93,11.93,47.84626,-54.09684
2022-05-13 13:09:01+00:00,239.1981,6.9,11.93,47.84626,-54.09684
2022-05-13 13:19:00+00:00,231.7798,6.9,11.93,47.84626,-54.09684
2022-05-13 13:29:00+00:00,225.3931,6.9,11.93,47.84626,-54.09684
2022-05-13 13:39:00+00:00,220.5981,6.9,11.93,47.84626,-54.09684
2022-05-13 13:49:00+00:00,217.4414,6.99,11.93,47.84626,-54.09684
2022-05-13 13:59:00+00:00,214.8647,7.0,11.93,47.84626,-54.09684
2022-05-13 14:09:00+00:00,211.5665,7.0,11.93,47.84626,-54.09684
2022-05-13 14:19:00+00:00,203.0248,7.09,11.93,47.84626,-54.09684
2022-05-13 14:29:00+00:00,195.4631,7.13,11.93,47.84626,-54.09684
2022-05-13 14:39:00+00:00,193.8448,7.16,11.93,47.84626,-54.09684
2022-05-13 14:49:00+00:00,191.3898,7.14,11.93,47.84626,-54.09684
2022-05-13 14:59:00+00:00,187.5115,7.19,11.93,47.84626,-54.09684
2022-05-13 15:09:00+00:00,187.3098,7.2,11.93,47.84626,-54.09684
2022-05-13 15:19:00+00:00,187.8431,7.23,11.93,47.84626,-54.09684
2022-05-13 15:29:00+00:00,188.2882,7.28,11.93,47.84626,-54.09684
2022-05-13 15:39:00+00:00,187.2264,7.29,11.93,47.84626,-54.09684
2022-05-13 15:49:00+00:00,188.0181,7.21,11.93,47.84626,-54.09684
2022-05-13 15:59:00+00:00,187.1198,7.23,11.93,47.84626,-54.09684
2022-05-13 16:09:00+00:00,184.6365,7.2,11.93,47.84626,-54.09684
2022-05-13 16:19:00+00:00,185.9031,7.1,11.93,47.84626,-54.09684
2022-05-13 16:29:00+00:00,188.3248,6.85,11.93,47.84626,-54.09684
2022-05-13 16:39:00+00:00,192.1914,6.7,11.93,47.84626,-54.09684
2022-05-13 16:49:00+00:00,193.9798,6.6,11.93,47.84626,-54.09684
2022-05-13 16:59:00+00:00,194.6947,6.5,11.93,47.84626,-54.09684
2022-05-13 17:09:00+00:00,204.3914,6.4,11.93,47.84626,-54.09684
2022-05-13 17:19:01+00:00,208.7515,6.3,11.93,47.84626,-54.09684
2022-05-13 17:29:01+00:00,209.2264,6.29,11.93,47.84626,-54.09684
2022-05-13 17:39:01+00:00,213.4098,6.3,11.93,47.84626,-54.09684
2022-05-13 17:49:01+00:00,220.7931,6.29,11.93,47.84626,-54.09684
2022-05-13 17:59:01+00:00,225.7564,6.2,11.93,47.84626,-54.09684
2022-05-13 18:09:01+00:00,230.9965,6.2,11.93,47.84626,-54.09684
2022-05-13 18:19:01+00:00,237.6248,6.2,11.93,47.84626,-54.09684
2022-05-13 18:29:01+00:00,243.4048,6.2,11.93,47.84626,-54.09684
2022-05-13 18:39:01+00:00,249.4931,6.2,11.93,47.84626,-54.09684
2022-05-13 18:49:01+00:00,254.8631,6.18,11.93,47.84626,-54.09684
2022-05-13 18:59:01+00:00,263.6014,6.15,11.93,47.84626,-54.09684
2022-05-13 19:09:01+00:00,273.488,6.1,11.93,47.84626,-54.09684
2022-05-13 19:19:01+00:00,281.8763,6.0,11.93,47.84626,-54.09684
2022-05-13 19:29:01+00:00,285.5197,6.0,11.93,47.84626,-54.09684
2022-05-13 19:39:01+00:00,287.9781,5.99,11.93,47.84626,-54.09684
2022-05-13 19:49:01+00:00,297.738,5.95,11.93,47.84626,-54.09684
2022-05-13 19:59:01+00:00,306.5297,5.94,11.93,47.84626,-54.09684
2022-05-13 20:09:01+00:00,310.0814,5.9,11.93,47.84626,-54.09684
2022-05-13 20:19:01+00:00,310.9697,5.9,11.93,47.84626,-54.09684
2022-05-13 20:29:01+00:00,317.9496,5.9,11.93,47.84626,-54.09684
2022-05-13 20:39:01+00:00,325.4597,5.9,11.93,47.84626,-54.09684
2022-05-13 20:49:01+00:00,322.4297,6.0,11.93,47.84626,-54.09684
2022-05-13 20:59:01+00:00,322.748,6.09,11.93,47.84626,-54.09684
2022-05-13 21:09:01+00:00,332.4329,6.0,11.93,47.84626,-54.09684
2022-05-13 21:19:01+00:00,339.3347,6.0,11.93,47.84626,-54.09684
2022-05-13 21:29:01+00:00,335.5113,6.19,11.93,47.84626,-54.09684
2022-05-13 21:39:01+00:00,330.163,6.3,11.93,47.84626,-54.09684
2022-05-13 21:49:01+00:00,335.463,6.36,11.93,47.84626,-54.09684
2022-05-13 21:59:01+00:00,336.4581,6.38,11.93,47.84626,-54.09684
2022-05-13 22:09:01+00:00,332.6764,6.38,11.93,47.84626,-54.09684
2022-05-13 22:19:01+00:00,336.5613,6.37,11.93,47.84626,-54.09684
2022-05-13 22:29:01+00:00,338.8813,6.35,11.93,47.84626,-54.09684
2022-05-13 22:39:01+00:00,333.9496,6.77,11.93,47.84626,-54.09684
2022-05-13 22:49:01+00:00,327.0714,7.19,11.93,47.84626,-54.09684
2022-05-13 22:59:01+00:00,322.5746,7.3,11.93,47.84626,-54.09684
2022-05-13 23:09:01+00:00,321.9431,7.39,11.93,47.84626,-54.09684
2022-05-13 23:19:01+00:00,317.158,7.47,11.93,47.84626,-54.09684
2022-05-13 23:29:01+00:00,310.3513,7.5,11.93,47.84626,-54.09684
2022-05-13 23:39:01+00:00,300.6863,7.56,11.93,47.84626,-54.09684
2022-05-13 23:49:01+00:00,296.0314,7.58,11.93,47.84626,-54.09684
2022-05-13 23:59:01+00:00,291.7364,7.62,11.93,47.84626,-54.09684
